Weather History for Louisburg, NC

Change the Weather History Date:

Monday, April 8, 2013

  Actual Average (KRDU) Record (KRDU)
Temperature  
Mean Temperature 65 °F 58 °F  
Max Temperature 77 °F 71 °F 89 °F (1929)
Min Temperature 53 °F 46 °F 27 °F (2007)
Degree Days  
Heating Degree Days 0 8  
Month to date heating degree days 69  
Since 1 July heating degree days 3065  
Cooling Degree Days 0 1  
Month to date cooling degree days 8  
Year to date cooling degree days 20  
Growing Degree Days 15 (Base 50)    
Moisture  
Dew Point 51 °F    
Average Humidity 59    
Maximum Humidity 100    
Minimum Humidity 34    
Precipitation  
Precipitation 0.00 in 0.10 in 2.30 in (1895)
Month to date precipitation 0.84  
Year to date precipitation 11.68  
Snow  
Snow 0.00 in 0.00 in 0.00 in (2002)
Month to date snowfall 0.1  
Since 1 July snowfall 6.1  
Snow Depth -    
Sea Level Pressure  
Sea Level Pressure 30.13 in    
Wind  
Wind Speed 5 mph (SSW)    
Max Wind Speed 15 mph    
Max Gust Speed 24 mph    
Visibility 10 miles    
Events      
T = Trace of Precipitation, MM = Missing Value Source: NWS Daily Summary

Daily Weather History Graph

Daily Weather History Graph

Search for Another Location

Airport:

Trip Planner

Search our weather history database for the weather conditions in past years. The results will help you decide how hot, cold, wet, or windy it might be!

Date:

Astronomy

Apr. 08, 2013 Rise Set
Actual Time 6:49 AM EDT 7:41 PM EDT
Civil Twilight 6:23 AM EDT 8:07 PM EDT
Nautical Twilight 5:52 AM EDT 8:38 PM EDT
Astronomical Twilight 5:20 AM EDT 9:10 PM EDT
Moon 5:35 AM EDT (4/8) 6:15 PM EDT (4/8)
Length of Visible Light 13h 44m
Length of Day
12h 51m
Waning Crescent, 3% of the Moon is Illuminated
Apr 8
Waning Crescent
Apr 10
New
Apr 18
First Quarter
Apr 25
Full
May 2
Last Quarter

Hourly Weather History & Observations

Time (EDT) Temp. Dew Point Humidity Pressure Visibility Wind Dir Wind Speed Gust Speed Precip Events Conditions
12:15 AM 55.4 °F 46.4 °F 72% 30.15 in 10.0 mi South 4.6 mph - N/A   Clear
12:35 AM 55.4 °F 48.2 °F 77% 30.15 in 10.0 mi South 4.6 mph - N/A   Clear
12:55 AM 55.4 °F 48.2 °F 77% 30.15 in 10.0 mi South 4.6 mph - N/A   Clear
1:15 AM 55.4 °F 48.2 °F 77% 30.15 in 10.0 mi South 5.8 mph - N/A   Clear
1:35 AM 55.4 °F 50.0 °F 82% 30.15 in 10.0 mi South 4.6 mph - N/A   Clear
1:55 AM 55.4 °F 50.0 °F 82% 30.14 in 10.0 mi SSW 4.6 mph - N/A   Clear
2:15 AM 55.4 °F 50.0 °F 82% 30.14 in 10.0 mi SSW 4.6 mph - N/A   Clear
2:35 AM 55.4 °F 50.0 °F 82% 30.13 in 10.0 mi SSW 4.6 mph - N/A   Clear
2:55 AM 55.4 °F 50.0 °F 82% 30.13 in 10.0 mi Calm Calm - N/A   Clear
3:15 AM 55.4 °F 51.8 °F 88% 30.13 in 10.0 mi Calm Calm - N/A   Clear
3:35 AM 55.4 °F 51.8 °F 88% 30.12 in 10.0 mi SSW 3.5 mph - N/A   Clear
3:55 AM 53.6 °F 53.6 °F 100% 30.12 in 10.0 mi SW 3.5 mph - N/A   Clear
4:15 AM 53.6 °F 53.6 °F 100% 30.12 in 10.0 mi SSW 3.5 mph - N/A   Clear
4:35 AM 53.6 °F 53.6 °F 100% 30.13 in 10.0 mi Calm Calm - N/A   Clear
4:55 AM 53.6 °F 53.6 °F 100% 30.13 in 10.0 mi Calm Calm - N/A   Clear
5:15 AM - - N/A% 30.12 in 10.0 mi SSW 3.5 mph - N/A   Clear
5:35 AM - - N/A% 30.13 in 10.0 mi SSW 3.5 mph - N/A   Clear
5:55 AM - - N/A% 30.13 in 10.0 mi Calm Calm - N/A   Clear
6:15 AM - - N/A% 30.14 in 10.0 mi SSW 3.5 mph - N/A   Clear
6:35 AM - - N/A% 30.14 in 10.0 mi SSW 3.5 mph - N/A   Clear
6:55 AM - - N/A% 30.16 in 10.0 mi SSW 3.5 mph - N/A   Clear
7:15 AM - - N/A% 30.17 in 7.0 mi SSW 3.5 mph - N/A   Clear
7:35 AM - - N/A% 30.17 in 10.0 mi South 3.5 mph - N/A   Clear
7:55 AM - - N/A% 30.18 in 10.0 mi SSW 4.6 mph - N/A   Clear
8:15 AM - - N/A% 30.18 in 10.0 mi SSW 3.5 mph - N/A   Clear
8:35 AM - - N/A% 30.18 in 7.0 mi SSW 4.6 mph - N/A   Clear
8:55 AM - - N/A% 30.18 in 10.0 mi SW 5.8 mph - N/A   Clear
9:15 AM 60.8 °F 60.8 °F 100% 30.18 in 10.0 mi Calm Calm - N/A   Clear
9:35 AM 62.6 °F 55.4 °F 77% 30.18 in 10.0 mi WSW 5.8 mph - N/A   Clear
9:55 AM 64.4 °F 55.4 °F 73% 30.17 in 10.0 mi SW 4.6 mph - N/A   Clear
10:15 AM 66.2 °F 53.6 °F 64% 30.17 in 10.0 mi SW 3.5 mph - N/A   Clear
10:35 AM 68.0 °F 51.8 °F 56% 30.18 in 10.0 mi WSW 6.9 mph - N/A   Clear
10:55 AM 69.8 °F 51.8 °F 53% 30.18 in 10.0 mi WSW 5.8 mph - N/A   Clear
11:15 AM 69.8 °F 51.8 °F 53% 30.17 in 10.0 mi West 9.2 mph - N/A   Clear
11:35 AM 71.6 °F 53.6 °F 53% 30.17 in 10.0 mi Calm Calm - N/A   Clear
11:55 AM 71.6 °F 53.6 °F 53% 30.17 in 10.0 mi WSW 5.8 mph - N/A   Clear
12:15 PM 73.4 °F 53.6 °F 50% 30.16 in 10.0 mi WSW 8.1 mph - N/A   Clear
12:35 PM 73.4 °F 53.6 °F 50% 30.16 in 10.0 mi SW 5.8 mph - N/A   Clear
12:55 PM 73.4 °F 53.6 °F 50% 30.15 in 10.0 mi Calm Calm - N/A   Clear
1:15 PM 75.2 °F 53.6 °F 47% 30.14 in 10.0 mi South 9.2 mph 17.3 mph N/A   Scattered Clouds
1:35 PM 75.2 °F 53.6 °F 47% 30.13 in 10.0 mi South 10.4 mph 17.3 mph N/A   Scattered Clouds
1:55 PM 73.4 °F 51.8 °F 47% 30.11 in 10.0 mi SSW 6.9 mph - N/A   Scattered Clouds
2:15 PM 77.0 °F 50.0 °F 39% 30.10 in 10.0 mi South 15.0 mph 21.9 mph N/A   Mostly Cloudy
2:35 PM 75.2 °F 50.0 °F 41% 30.10 in 10.0 mi SW 4.6 mph 16.1 mph N/A   Mostly Cloudy
2:55 PM 77.0 °F 50.0 °F 39% 30.10 in 10.0 mi SSW 6.9 mph - N/A   Scattered Clouds
3:15 PM 77.0 °F 50.0 °F 39% 30.09 in 10.0 mi SW 6.9 mph - N/A   Mostly Cloudy
3:35 PM 77.0 °F 50.0 °F 39% 30.09 in 10.0 mi SSW 9.2 mph 24.2 mph N/A   Mostly Cloudy
3:55 PM 77.0 °F 50.0 °F 39% 30.08 in 10.0 mi SW 4.6 mph 18.4 mph N/A   Mostly Cloudy
4:15 PM 77.0 °F 50.0 °F 39% 30.07 in 10.0 mi SSW 8.1 mph - N/A   Mostly Cloudy
4:35 PM 77.0 °F 48.2 °F 36% 30.07 in 10.0 mi South 9.2 mph - N/A   Scattered Clouds
4:55 PM 77.0 °F 48.2 °F 36% 30.06 in 10.0 mi South 8.1 mph - N/A   Scattered Clouds
5:15 PM 77.0 °F 46.4 °F 34% 30.06 in 10.0 mi SSW 8.1 mph - N/A   Scattered Clouds
5:35 PM 77.0 °F 46.4 °F 34% 30.06 in 10.0 mi South 8.1 mph - N/A   Scattered Clouds
5:55 PM 77.0 °F 46.4 °F 34% 30.07 in 10.0 mi SSW 5.8 mph - N/A   Scattered Clouds
6:15 PM 77.0 °F 46.4 °F 34% 30.07 in 10.0 mi SSW 10.4 mph 17.3 mph N/A   Clear
6:35 PM 75.2 °F 48.2 °F 38% 30.07 in 10.0 mi SSW 6.9 mph - N/A   Clear
6:55 PM 73.4 °F 46.4 °F 38% 30.07 in 10.0 mi SSW 5.8 mph - N/A   Scattered Clouds
7:15 PM 73.4 °F 46.4 °F 38% 30.07 in 10.0 mi SSW 6.9 mph - N/A   Clear
7:35 PM 71.6 °F 46.4 °F 41% 30.08 in 10.0 mi South 4.6 mph - N/A   Clear
7:55 PM 69.8 °F 48.2 °F 46% 30.08 in 10.0 mi South 3.5 mph - N/A   Clear
8:15 PM 69.8 °F 48.2 °F 46% 30.08 in 10.0 mi South 3.5 mph - N/A   Clear
8:35 PM 68.0 °F 48.2 °F 49% 30.09 in 10.0 mi Calm Calm - N/A   Clear
8:55 PM 66.2 °F 50.0 °F 56% 30.10 in 10.0 mi South 3.5 mph - N/A   Clear
9:15 PM 66.2 °F 50.0 °F 56% 30.10 in 10.0 mi SSW 3.5 mph - N/A   Clear
9:35 PM 64.4 °F 50.0 °F 59% 30.11 in 10.0 mi South 4.6 mph - N/A   Clear
9:55 PM 64.4 °F 50.0 °F 59% 30.11 in 10.0 mi SSW 3.5 mph - N/A   Clear
10:15 PM 64.4 °F 50.0 °F 59% 30.11 in 10.0 mi SSW 3.5 mph - N/A   Clear
10:35 PM 66.2 °F 50.0 °F 56% 30.12 in 10.0 mi South 8.1 mph - N/A   Clear
10:55 PM 66.2 °F 51.8 °F 60% 30.12 in 10.0 mi South 8.1 mph - N/A   Clear
11:15 PM 66.2 °F 51.8 °F 60% 30.12 in 10.0 mi South 9.2 mph - N/A   Clear
11:35 PM 64.4 °F 51.8 °F 64% 30.12 in 10.0 mi South 8.1 mph - N/A   Clear
11:55 PM 64.4 °F 51.8 °F 64% 30.12 in 10.0 mi South 8.1 mph - N/A   Clear